Weather History for San Antonio, TX

Change the Weather History Date:

Monday, October 22, 2012

  Actual Average Record
Temperature  
Mean Temperature 82 °F 70 °F  
Max Temperature 89 °F 81 °F 91 °F (1933)
Min Temperature 74 °F 59 °F 40 °F (1911)
Degree Days  
Heating Degree Days 0 1  
Month to date heating degree days 15 11  
Since 1 July heating degree days 15 13  
Cooling Degree Days 17 6  
Month to date cooling degree days 200 175  
Year to date cooling degree days 3440 3009  
Growing Degree Days 31 (Base 50)    
Moisture  
Dew Point 70 °F    
Average Humidity 70    
Maximum Humidity 94    
Minimum Humidity 46    
Precipitation  
Precipitation 0.00 in 0.14 in 4.09 in (1949)
Month to date precipitation 1.02 3.04  
Year to date precipitation 37.38 27.01  
Snow  
Snow 0.00 in - - ()
Month to date snowfall 0.0  
Since 1 July snowfall 0.0  
Since 1 September snowfall 0.0  
Snow Depth 0.00 in    
Sea Level Pressure  
Sea Level Pressure 29.90 in    
Wind  
Wind Speed 14 mph (SSE)    
Max Wind Speed 24 mph    
Max Gust Speed 29 mph    
Visibility 10 miles    
Events      
T = Trace of Precipitation, MM = Missing Value Source: NWS Daily Summary

Daily Weather History Graph

Daily Weather History Graph

Search for Another Location

Airport:

Trip Planner

Search our weather history database for the weather conditions in past years. The results will help you decide how hot, cold, wet, or windy it might be!

Date:

Astronomy

Oct. 22, 2012 Rise Set
Actual Time 7:40 AM CDT 6:55 PM CDT
Civil Twilight 7:16 AM CDT 7:19 PM CDT
Nautical Twilight 6:48 AM CDT 7:47 PM CDT
Astronomical Twilight 6:20 AM CDT 8:15 PM CDT
Moon 2:36 PM CDT (10/22) 12:59 AM CDT (10/22)
Length of Visible Light 12h 03m
Length of Day
11h 15m
First Quarter, 56% of the Moon is Illuminated
Oct 22
First Quarter
Oct 29
Full
Nov 6
Last Quarter
Nov 13
New
Nov 20
First Quarter

Hourly Weather History & Observations

Time (CDT) Temp. Heat Index Dew Point Humidity Pressure Visibility Wind Dir Wind Speed Gust Speed Precip Events Conditions
12:53 AM 75.0 °F - 73.0 °F 94% 29.88 in 10.0 mi SSE 20.7 mph 27.6 mph N/A   Overcast
1:53 AM 75.0 °F - 72.0 °F 90% 29.89 in 10.0 mi SSE 11.5 mph - N/A   Overcast
2:53 AM 75.0 °F - 72.0 °F 90% 29.89 in 10.0 mi South 13.8 mph - N/A   Overcast
3:53 AM 75.0 °F - 72.0 °F 90% 29.88 in 10.0 mi South 11.5 mph 19.6 mph N/A   Overcast
4:53 AM 75.0 °F - 72.0 °F 90% 29.88 in 10.0 mi SSE 11.5 mph - N/A   Mostly Cloudy
5:53 AM 75.0 °F - 71.1 °F 87% 29.88 in 10.0 mi South 13.8 mph - N/A   Mostly Cloudy
6:53 AM 73.9 °F - 71.1 °F 91% 29.89 in 10.0 mi SSE 11.5 mph - N/A   Mostly Cloudy
7:53 AM 73.9 °F - 71.1 °F 91% 29.90 in 10.0 mi SSE 12.7 mph - N/A   Overcast
8:53 AM 75.0 °F - 71.1 °F 87% 29.91 in 10.0 mi SSE 15.0 mph 19.6 mph N/A   Mostly Cloudy
9:49 AM 77.0 °F - 69.8 °F 78% 29.98 in 10.0 mi South 13.8 mph - N/A   Mostly Cloudy
9:53 AM 75.9 °F - 70.0 °F 82% 29.93 in 10.0 mi South 12.7 mph 20.7 mph N/A   Mostly Cloudy
10:07 AM 78.8 °F - 69.8 °F 74% 29.99 in 10.0 mi SSE 16.1 mph 21.9 mph N/A   Mostly Cloudy
10:53 AM 80.1 °F 83.2 °F 70.0 °F 71% 29.94 in 10.0 mi South 13.8 mph - N/A   Scattered Clouds
11:53 AM 82.0 °F 86.3 °F 71.1 °F 69% 29.94 in 10.0 mi SSE 10.4 mph - N/A   Scattered Clouds
12:53 PM 84.9 °F 88.2 °F 68.0 °F 57% 29.92 in 10.0 mi South 13.8 mph 26.5 mph N/A   Partly Cloudy
1:53 PM 86.0 °F 88.8 °F 66.9 °F 53% 29.88 in 10.0 mi South 16.1 mph 21.9 mph N/A   Scattered Clouds
2:53 PM 87.1 °F 88.3 °F 64.0 °F 46% 29.85 in 10.0 mi SSE 15.0 mph 25.3 mph N/A   Scattered Clouds
3:53 PM 88.0 °F 90.3 °F 66.0 °F 48% 29.84 in 10.0 mi South 13.8 mph 21.9 mph N/A   Scattered Clouds
4:53 PM 88.0 °F 89.3 °F 64.0 °F 45% 29.84 in 10.0 mi SSE 17.3 mph 24.2 mph N/A   Scattered Clouds
5:53 PM 84.0 °F 89.0 °F 71.1 °F 65% 29.85 in 10.0 mi ESE 17.3 mph - N/A   Scattered Clouds
6:53 PM 81.0 °F 84.4 °F 70.0 °F 69% 29.87 in 10.0 mi SE 18.4 mph 24.2 mph N/A   Partly Cloudy
7:53 PM 79.0 °F - 70.0 °F 74% 29.88 in 10.0 mi SE 16.1 mph - N/A   Partly Cloudy
8:53 PM 77.0 °F - 70.0 °F 79% 29.90 in 10.0 mi SE 16.1 mph - N/A   Partly Cloudy
9:53 PM 75.9 °F - 70.0 °F 82% 29.91 in 10.0 mi SE 17.3 mph 23.0 mph N/A   Mostly Cloudy
10:53 PM 75.0 °F - 71.1 °F 87% 29.92 in 10.0 mi SE 11.5 mph - N/A   Overcast
11:53 PM 75.0 °F - 71.1 °F 87% 29.91 in 10.0 mi SE 11.5 mph - N/A   Overcast